カタログに戻る

COSMOS 1275 DEB

運用中PO
NORAD 17614·DEBRIS·🇷🇺 Russia

打ち上げ Jun 4, 1981 から Plesetsk Cosmodrome

Loading…

次のパス (今後24時間)

TLE

最新Source: Space-Track

元期: Sep 13, 2026, 18:00 UTC

1 17614U 81053KH  26256.75067560  .00001322  00000-0  72402-3 0  9999
2 17614  82.7862 356.3346 0044455 132.8606  19.5902 14.10725613100199

AllMySatでCOSMOS 1275 DEBをリアルタイム追跡

Download on the App Store